Location: Banff
(51.1670°N, 115.5670°W)
Time: 01:15:34
(UTC-06:00)

Amateur Radio Satellites - All Passes

Search period start: 29 June 2016 00:45
Search period end: 30 June 2016 00:45
Location: Banff, 51.1670°N, 115.5670°W

Satellite Date Start Highest point End Downlink Frequencies (MHz)
Time Altitude Azimuth
TISAT 1 29 Jun 00:48:52 00:52:09 23° 62° (ENE) 00:55:27 437.305
UKube-1 29 Jun 01:03:45 01:08:01 60° 258° (WSW) 01:12:18 .
ESTCUBE 1 29 Jun 01:03:46 01:07:44 29° 265° (W) 01:11:44 437.505/2401.250
SPROUT 29 Jun 01:04:30 01:08:45 84° 256° (WSW) 01:13:03 437.525
AISAT 29 Jun 01:06:04 01:10:10 37° 263° (W) 01:14:17 437.250
YUBILEINY 29 Jun 01:10:01 01:18:54 83° 262° (W) 01:27:45 435.215
BUGSAT 1 29 Jun 01:14:46 01:18:15 26° 95° (E) 01:21:45 437.445
TIGRISAT 29 Jun 01:22:43 01:26:44 30° 296° (WNW) 01:30:49 435.000
DX 1 29 Jun 01:24:57 01:28:51 32° 264° (W) 01:32:46 434.975-435.025
SWISSCUBE 29 Jun 01:27:01 01:30:11 18° 56° (NE) 01:33:23 437.505
UNISAT 6 29 Jun 01:28:07 01:31:58 27° 298° (WNW) 01:35:52 437.425
NANOSAT C BR1 29 Jun 01:35:07 01:39:24 90° 112° (ESE) 01:43:40 145.865
QB50P1 29 Jun 01:38:22 01:42:39 81° 285° (WNW) 01:46:54 145.935-145.965
POPSAT HIP 1 29 Jun 01:41:38 01:45:54 77° 288° (WNW) 01:50:10 437.405
SO-50 29 Jun 01:41:40 01:46:08 43° 238° (WSW) 01:50:26 436.795
JAS-2 29 Jun 01:42:52 01:47:55 30° 92° (E) 01:52:35 435.910
BEESAT 29 Jun 01:51:23 01:55:14 25° 60° (ENE) 01:59:06 436.000
ITUPSAT 1 29 Jun 01:52:40 01:56:34 25° 60° (ENE) 02:00:28 437.325
QB50P2 29 Jun 01:54:09 01:58:20 55° 289° (WNW) 02:02:31 145.880/145.840
CUBEBUG 1 29 Jun 01:54:33 01:56:56 14° 272° (W) 01:59:18 437.445
DUCHIFAT 1 29 Jun 01:55:35 01:59:46 61° 289° (WNW) 02:03:58 145.980
POLYITAN 1 29 Jun 01:56:46 02:00:58 54° 290° (WNW) 02:05:09 437.675
Cosmos 2504 29 Jun 02:02:28 02:11:27 78° 77° (ENE) 02:20:06 435.465 / 435.565
VELOX 1 29 Jun 02:04:11 02:06:12 13° 273° (W) 02:08:12 145.980
AO-85 29 Jun 02:08:56 02:12:38 19° 345° (NNW) 02:16:09 145.980
ANTELSAT 29 Jun 02:09:03 02:11:23 14° 306° (NW) 02:13:45 437.575/2403.000
TISAT 1 29 Jun 02:23:34 02:27:34 46° 261° (W) 02:31:37 437.305
Cosmos 2491 29 Jun 02:25:43 02:34:29 77° 282° (WNW) 02:43:17 435.465 / 435.565
KKS-1 29 Jun 02:36:57 02:37:15 10° 50° (NE) 02:37:33 437.445
SPROUT 29 Jun 02:44:26 02:45:25 11° 275° (W) 02:46:23 437.525
BUGSAT 1 29 Jun 02:49:59 02:53:44 36° 293° (WNW) 02:57:30 437.445
PCSat 29 Jun 02:54:09 02:58:59 34° 114° (ESE) 03:03:52 145.827
SWISSCUBE 29 Jun 03:02:36 03:07:25 83° 255° (WSW) 03:12:16 437.505
Oscar 19 29 Jun 03:03:41 03:08:44 53° 100° (E) 03:13:45 437.125/150
STARS 29 Jun 03:07:16 03:08:04 10° 51° (NE) 03:08:52 437.465
YUBILEINY 29 Jun 03:08:10 03:14:22 22° 286° (WNW) 03:20:35 435.215
NANOSAT C BR1 29 Jun 03:12:20 03:14:31 14° 304° (NW) 03:16:43 145.865
QB50P1 29 Jun 03:15:53 03:17:45 13° 305° (NW) 03:19:37 145.935-145.965
GONETS M04 29 Jun 03:17:06 03:18:41 11° 33° (NNE) 03:20:17
POPSAT HIP 1 29 Jun 03:19:18 03:20:59 12° 306° (NW) 03:22:41 437.405
Gurwin Techsat 1B 29 Jun 03:24:29 03:29:28 39° 97° (E) 03:34:26 435.225
BEESAT 3 29 Jun 03:25:40 03:29:03 28° 119° (ESE) 03:32:29 437.485
JAS-2 29 Jun 03:27:44 03:33:21 48° 295° (WNW) 03:38:28 435.910
BEESAT 29 Jun 03:28:02 03:32:44 55° 259° (W) 03:37:28 436.000
ITAMSAT 1 29 Jun 03:28:13 03:31:39 17° 88° (E) 03:35:03 435.822/435.867
ITUPSAT 1 29 Jun 03:29:23 03:34:06 55° 259° (W) 03:38:52 437.325
O/OREOS (USA 219) 29 Jun 03:44:46 03:49:04 47° 111° (ESE) 03:53:23 437.305
AO-85 29 Jun 03:51:30 03:54:51 18° 10° (N) 03:58:03 145.980
Cosmos 2504 29 Jun 03:56:40 04:04:01 31° 281° (W) 04:11:12 435.465 / 435.565
MOZHAYETS 4 29 Jun 04:02:37 04:07:02 46° 68° (ENE) 04:11:29
BEESAT 2 29 Jun 04:04:12 04:07:53 38° 122° (ESE) 04:11:37 435.950
KKS-1 29 Jun 04:08:35 04:12:55 58° 70° (ENE) 04:17:17 437.445
Cosmos 2491 29 Jun 04:26:29 04:33:02 23° 308° (NW) 04:39:36 435.465 / 435.565
AO-7 29 Jun 04:31:12 04:38:22 30° 93° (E) 04:45:27 29.400- 29.500
PCSat 29 Jun 04:36:55 04:42:14 53° 314° (NW) 04:47:35 145.827
STARS 29 Jun 04:39:16 04:43:34 61° 71° (ENE) 04:47:54 437.465
Oscar 19 29 Jun 04:43:30 04:47:49 28° 300° (WNW) 04:52:06 437.125/150
SWISSCUBE 29 Jun 04:43:54 04:45:59 13° 274° (W) 04:48:05 437.505
Cosmos 2499 29 Jun 04:44:27 04:50:44 21° 49° (NE) 04:56:51 435.465 / 435.565
AIST 1 29 Jun 04:54:23 04:58:39 70° 77° (ENE) 05:02:54
BEESAT 3 29 Jun 05:02:49 05:06:36 44° 319° (NW) 05:10:26 437.485
Gurwin Techsat 1B 29 Jun 05:04:32 05:09:26 38° 296° (WNW) 05:14:19 435.225
ITAMSAT 1 29 Jun 05:06:30 05:11:47 82° 287° (WNW) 05:17:01 435.822/435.867
GONETS M04 29 Jun 05:11:10 05:19:03 36° 62° (ENE) 05:26:54
JAS-2 29 Jun 05:15:13 05:16:57 11° 319° (NW) 05:18:39 435.910
HORYU 2 29 Jun 05:21:30 05:23:23 12° 87° (E) 05:25:16 437.375
O/OREOS (USA 219) 29 Jun 05:24:46 05:28:41 28° 311° (NW) 05:32:35 437.305
CUBESAT XI-V 29 Jun 05:31:41 05:36:10 46° 69° (ENE) 05:40:40 437.345
AO-85 29 Jun 05:32:13 05:36:41 36° 34° (NE) 05:40:47 145.980
MOZHAYETS 4 29 Jun 05:40:32 05:44:24 26° 267° (W) 05:48:20
BEESAT 2 29 Jun 05:42:05 05:45:46 35° 322° (NW) 05:49:30 435.950
KKS-1 29 Jun 05:46:40 05:49:52 19° 269° (W) 05:53:04 437.445
STARS 29 Jun 06:17:21 06:20:20 18° 270° (W) 06:23:20 437.465
PCSat 29 Jun 06:22:55 06:26:51 20° 338° (NNW) 06:30:49 145.827
AO-7 29 Jun 06:23:33 06:31:58 78° 294° (WNW) 06:40:19 29.400- 29.500
AIST 2 29 Jun 06:28:39 06:32:44 65° 127° (SE) 06:36:51 435.215
AIST 1 29 Jun 06:33:27 06:35:42 14° 277° (W) 06:37:57
Cosmos 2499 29 Jun 06:36:59 06:45:52 68° 75° (ENE) 06:54:15 435.465 / 435.565
NOAA 15 29 Jun 06:38:50 06:42:15 17° 88° (E) 06:45:39 137.62
BEESAT 3 29 Jun 06:42:54 06:45:15 15° 341° (NNW) 06:47:37 437.485
ITAMSAT 1 29 Jun 06:47:13 06:50:31 17° 308° (NW) 06:53:47 435.822/435.867
HORYU 2 29 Jun 06:56:06 07:00:38 88° 102° (ESE) 07:05:09 437.375
STRAND 1 29 Jun 07:07:37 07:12:22 38° 64° (ENE) 07:17:08 437.568
GONETS M04 29 Jun 07:07:56 07:16:34 68° 267° (W) 07:25:12
CUBESAT XI-V 29 Jun 07:09:50 07:13:46 26° 267° (W) 07:17:43 437.345
AO-85 29 Jun 07:12:50 07:17:19 48° 237° (WSW) 07:21:24 145.980
NOAA 18 29 Jun 07:17:22 07:22:09 29° 94° (E) 07:26:54 137.9125
Cubesat XI-IV 29 Jun 07:17:37 07:22:10 27° 93° (E) 07:26:42 437.490
CUSAT 1 29 Jun 07:21:52 07:27:44 26° 88° (E) 07:32:49 437.405
BEESAT 2 29 Jun 07:22:33 07:24:42 14° 345° (NNW) 07:26:51 435.950
BRITE-PL 29 Jun 07:32:19 07:36:19 42° 98° (E) 07:40:17 437.365/2234.400
LilacSat-2 29 Jun 07:46:47 07:50:31 43° 98° (E) 07:54:15 437.200
DANDE 29 Jun 07:50:05 07:56:33 26° 84° (E) 08:02:28 436.750
CUTE-I 29 Jun 07:51:24 07:56:39 49° 100° (E) 08:01:51 437.470
GOMX 1 29 Jun 08:02:16 08:06:15 40° 98° (E) 08:10:19 467.674
AIST 2 29 Jun 08:08:00 08:11:34 27° 328° (NNW) 08:15:09 435.215
PCSat 29 Jun 08:09:16 08:12:23 15° 5° (N) 08:15:30 145.827
CINEMA 3 29 Jun 08:14:57 08:15:08 10° 85° (E) 08:15:19 145.822/145.860
PRISM 29 Jun 08:16:44 08:20:13 26° 63° (ENE) 08:23:42 437.425
AO-7 29 Jun 08:17:05 08:23:36 26° 317° (NW) 08:30:08 29.400- 29.500
NOAA 15 29 Jun 08:17:25 08:22:43 82° 287° (WNW) 08:27:57 137.62
BEESAT 3 29 Jun 08:23:02 08:24:31 12° 5° (N) 08:26:01 437.485
Cosmos 2499 29 Jun 08:30:46 08:38:26 35° 278° (W) 08:45:47 435.465 / 435.565
HORYU 2 29 Jun 08:33:57 08:36:35 16° 305° (NW) 08:39:13 437.375
STRAND 1 29 Jun 08:46:49 08:51:34 37° 264° (W) 08:56:22 437.568
CANX-2 29 Jun 08:54:03 08:57:26 22° 92° (E) 09:00:46 2200.000
COMPASS 1 29 Jun 08:54:56 08:55:46 10° 85° (E) 08:56:35 437.405
HO-68 29 Jun 08:56:22 09:02:33 30° 92° (E) 09:08:42 435.675
Cubesat XI-IV 29 Jun 08:57:18 09:02:34 55° 292° (WNW) 09:07:48 437.490
NOAA 18 29 Jun 08:57:41 09:03:06 55° 293° (WNW) 09:08:30 137.9125
DOVE 4 29 Jun 08:58:38 09:02:55 71° 102° (ESE) 09:07:25 437.250
CUSAT 1 29 Jun 09:01:58 09:09:30 75° 283° (WNW) 09:15:36 437.405
BEESAT 2 29 Jun 09:02:23 09:04:10 12° 9° (N) 09:05:55 435.950
GONETS M04 29 Jun 09:06:44 09:11:41 17° 289° (WNW) 09:16:39
BRITE-PL 29 Jun 09:11:20 09:14:39 23° 298° (WNW) 09:17:57 437.365/2234.400
CUTE 1.7 + AOD 2 29 Jun 09:13:38 09:17:26 29° 94° (E) 09:21:11 437.475
SEEDS 29 Jun 09:16:25 09:19:53 24° 92° (E) 09:23:18 437.485
TIGRISAT 29 Jun 09:16:47 09:17:48 11° 51° (NE) 09:18:49 435.000
PHONESAT 2.4 29 Jun 09:19:16 09:20:19 11° 174° (S) 09:21:24 2401.200-2431.200
UNISAT 6 29 Jun 09:21:17 09:23:06 12° 53° (NE) 09:24:56 437.425
LilacSat-2 29 Jun 09:21:38 09:24:35 21° 297° (WNW) 09:27:34 437.200
DANDE 29 Jun 09:30:21 09:38:47 88° 279° (W) 09:46:12 436.750
CUTE-I 29 Jun 09:31:48 09:36:31 32° 299° (WNW) 09:41:13 437.470
GOMX 1 29 Jun 09:40:48 09:44:14 25° 296° (WNW) 09:47:44 467.674
CUBEBUG 2 29 Jun 09:40:51 09:44:34 24° 92° (E) 09:48:20 437.445
CINEMA 3 29 Jun 09:48:31 09:53:01 72° 102° (ESE) 09:57:43 145.822/145.860
AIST 2 29 Jun 09:49:21 09:51:22 13° 351° (N) 09:53:24 435.215
PRISM 29 Jun 09:51:30 09:55:24 38° 262° (W) 09:59:18 437.425
AAUSAT CUBESAT 2 29 Jun 09:53:07 09:56:53 31° 95° (E) 10:00:36 437.432
PCSat 29 Jun 09:53:09 09:57:42 26° 30° (NNE) 10:02:14 145.827
NOAA 15 29 Jun 09:58:27 10:01:45 17° 308° (NW) 10:05:02 137.62
ANTELSAT 29 Jun 09:58:57 10:02:27 24° 61° (ENE) 10:06:03 437.575/2403.000
BEESAT 3 29 Jun 10:00:26 10:03:36 22° 29° (NNE) 10:06:45 437.485
ZACube-1 29 Jun 10:04:00 10:07:18 19° 90° (E) 10:10:37 437.345
AO-7 29 Jun 10:11:13 10:13:34 11° 343° (NNW) 10:15:54 29.400- 29.500
M-CUBED/EXP-1 PRIME 29 Jun 10:11:15 10:14:05 19° 100° (E) 10:17:04 437.505
Oscar 11 29 Jun 10:12:16 10:15:45 23° 92° (E) 10:19:12 145.826/435.025
FUNcube-1 29 Jun 10:20:47 10:24:35 26° 93° (E) 10:28:24 145.935
UWE-3 29 Jun 10:26:11 10:30:33 42° 98° (E) 10:34:58 435.000/436.395/437.385
ISS 29 Jun 10:26:12 10:29:12 35° 152° (SSE) 10:32:14 145.825
COMPASS 1 29 Jun 10:27:47 10:32:02 84° 106° (ESE) 10:36:13 437.405
CANX-2 29 Jun 10:29:23 10:33:32 47° 290° (WNW) 10:37:39 2200.000
Cosmos 2491 29 Jun 10:33:23 10:39:43 21° 51° (NE) 10:46:01 435.465 / 435.565
DOVE 4 29 Jun 10:37:28 10:40:14 17° 301° (WNW) 10:43:03 437.250
Cubesat XI-IV 29 Jun 10:39:25 10:41:34 12° 313° (NW) 10:43:42 437.490
BEESAT 2 29 Jun 10:39:51 10:43:17 26° 32° (NNE) 10:46:42 435.950
NOAA 18 29 Jun 10:40:17 10:42:40 13° 314° (NW) 10:45:02 137.9125
HO-68 29 Jun 10:43:41 10:50:51 70° 293° (WNW) 10:58:00 435.675
CUSAT 1 29 Jun 10:47:33 10:52:19 19° 301° (WNW) 10:56:31 437.405
TIGRISAT 29 Jun 10:49:19 10:53:36 63° 72° (ENE) 10:58:00 435.000
CUTE 1.7 + AOD 2 29 Jun 10:49:24 10:53:19 35° 293° (WNW) 10:57:13 437.475
SEEDS 29 Jun 10:51:44 10:55:47 43° 291° (WNW) 10:59:47 437.485
UNISAT 6 29 Jun 10:54:42 10:59:02 75° 73° (ENE) 11:03:30 437.425
PHONESAT 2.4 29 Jun 10:55:50 10:56:07 10° 191° (S) 10:56:24 2401.200-2431.200
NANOSAT C BR1 29 Jun 10:58:02 11:00:53 18° 59° (ENE) 11:03:45 145.865
QB50P1 29 Jun 11:01:16 11:04:20 20° 60° (ENE) 11:07:25 145.935-145.965
POPSAT HIP 1 29 Jun 11:04:29 11:07:37 21° 61° (ENE) 11:10:46 437.405
AUBIESAT-1 29 Jun 11:04:54 11:08:42 54° 107° (ESE) 11:12:47 437.475
HUMSAT D 29 Jun 11:09:46 11:13:06 21° 91° (E) 11:16:24 437.325/437.525
DANDE 29 Jun 11:15:47 11:22:27 27° 301° (WNW) 11:28:26 436.750
QB50P2 29 Jun 11:16:29 11:20:03 28° 64° (ENE) 11:23:40 145.880/145.840
CUBEBUG 2 29 Jun 11:17:00 11:21:26 51° 290° (WNW) 11:25:58 437.445
DUCHIFAT 1 29 Jun 11:17:29 11:20:53 25° 63° (ENE) 11:24:18 145.980
POLYITAN 1 29 Jun 11:19:05 11:22:40 28° 64° (ENE) 11:26:18 437.675
RS-15 29 Jun 11:21:31 11:30:00 25° 99° (E) 11:38:45 29.354- 29.394
CINEMA 3 29 Jun 11:26:40 11:29:45 18° 301° (WNW) 11:32:53 145.822/145.860
AAUSAT CUBESAT 2 29 Jun 11:28:38 11:32:22 32° 294° (WNW) 11:36:03 437.432
AIST 2 29 Jun 11:29:02 11:31:30 15° 16° (NNE) 11:33:58 435.215
DELFI C3 29 Jun 11:32:41 11:36:42 66° 102° (ESE) 11:40:39 145.870
ANTELSAT 29 Jun 11:34:45 11:38:56 47° 261° (W) 11:43:15 437.575/2403.000
PCSat 29 Jun 11:36:23 11:41:52 86° 53° (NE) 11:47:18 145.827
BEESAT 3 29 Jun 11:37:47 11:41:46 84° 230° (SW) 11:45:43 437.485
ZACube-1 29 Jun 11:39:29 11:43:57 60° 289° (WNW) 11:48:29 437.345
M-CUBED/EXP-1 PRIME 29 Jun 11:45:09 11:48:50 51° 295° (WNW) 11:52:48 437.505
Oscar 11 29 Jun 11:47:55 11:52:08 47° 291° (WNW) 11:56:18 145.826/435.025
FUNcube-1 29 Jun 11:56:41 12:01:00 45° 291° (WNW) 12:05:22 145.935
JAS-2 29 Jun 11:59:16 12:05:37 33° 59° (ENE) 12:11:24 435.910
AO-7 29 Jun 12:01:30 12:02:38 10° 12° (NNE) 12:03:47 29.400- 29.500
ISS 29 Jun 12:02:12 12:05:29 89° 346° (NNW) 12:08:47 145.825
UWE-3 29 Jun 12:02:57 12:06:52 29° 296° (WNW) 12:10:50 435.000/436.395/437.385
COMPASS 1 29 Jun 12:04:44 12:07:01 14° 303° (WNW) 12:09:17 437.405
BUGSAT 1 29 Jun 12:09:18 12:12:59 36° 67° (ENE) 12:16:41 437.445
O/OREOS (USA 219) 29 Jun 12:10:21 12:14:28 35° 52° (NE) 12:18:35 437.305
VELOX 1 29 Jun 12:11:42 12:13:09 11° 86° (E) 12:14:35 145.980
BEESAT 2 29 Jun 12:17:29 12:21:27 62° 233° (SW) 12:25:23 435.950
YUBILEINY 29 Jun 12:23:04 12:29:44 26° 77° (ENE) 12:36:26 435.215
TIGRISAT 29 Jun 12:27:52 12:30:46 17° 271° (W) 12:33:42 435.000
Cosmos 2491 29 Jun 12:29:38 12:38:23 73° 76° (ENE) 12:47:06 435.465 / 435.565
NANOSAT C BR1 29 Jun 12:32:03 12:36:12 64° 259° (WSW) 12:40:23 145.865
HO-68 29 Jun 12:32:27 12:37:26 21° 315° (NW) 12:42:26 435.675
UNISAT 6 29 Jun 12:33:52 12:36:20 15° 273° (W) 12:38:51 437.425
QB50P1 29 Jun 12:35:39 12:39:46 56° 259° (W) 12:43:56 145.935-145.965
POPSAT HIP 1 29 Jun 12:39:00 12:43:06 53° 260° (W) 12:47:14 437.405
AUBIESAT-1 29 Jun 12:40:06 12:42:58 20° 304° (WNW) 12:45:58 437.475
HUMSAT D 29 Jun 12:44:48 12:49:00 50° 290° (WNW) 12:53:10 437.325/437.525
UKube-1 29 Jun 12:46:39 12:49:19 16° 89° (E) 12:51:59 .
SPROUT 29 Jun 12:47:03 12:48:47 12° 86° (E) 12:50:30 437.525
Oscar 19 29 Jun 12:47:57 12:51:58 24° 58° (ENE) 12:56:00 437.125/150
ESTCUBE 1 29 Jun 12:50:20 12:54:37 40° 98° (E) 12:58:50 437.505/2401.250
AISAT 29 Jun 12:50:52 12:54:39 28° 94° (E) 12:58:25 437.250
QB50P2 29 Jun 12:51:51 12:55:46 37° 263° (W) 12:59:43 145.880/145.840
DUCHIFAT 1 29 Jun 12:52:26 12:56:24 42° 262° (W) 13:00:25 145.980
POLYITAN 1 29 Jun 12:54:30 12:58:23 36° 263° (W) 13:02:20 437.675
Cosmos 2504 29 Jun 12:59:17 13:02:52 13° 66° (ENE) 13:06:33 435.465 / 435.565
AIST 2 29 Jun 13:07:07 13:11:04 39° 39° (NE) 13:14:59 435.215
DX 1 29 Jun 13:07:32 13:11:22 29° 96° (E) 13:15:10 434.975-435.025
DELFI C3 29 Jun 13:08:36 13:11:07 16° 301° (WNW) 13:13:37 145.870
Gurwin Techsat 1B 29 Jun 13:12:56 13:16:42 20° 55° (NE) 13:20:27 435.225
BEESAT 3 29 Jun 13:17:15 13:18:48 12° 249° (WSW) 13:20:21 437.485
ZACube-1 29 Jun 13:18:17 13:19:22 11° 308° (NW) 13:20:28 437.345
PCSat 29 Jun 13:20:51 13:24:35 19° 253° (WSW) 13:28:19 145.827
RS-15 29 Jun 13:28:54 13:40:23 77° 124° (SE) 13:52:31 29.354- 29.394
50 SAT 29 Jun 13:32:08 13:35:52 75° 103° (ESE) 13:39:33 437.505
CUBEBUG 1 29 Jun 13:35:16 13:39:36 75° 102° (ESE) 13:43:55 437.445
ISS 29 Jun 13:38:42 13:42:00 88° 188° (S) 13:45:16 145.825
JAS-2 29 Jun 13:42:49 13:50:19 68° 257° (WSW) 13:57:04 435.910
BUGSAT 1 29 Jun 13:45:06 13:48:29 25° 266° (W) 13:51:51 437.445
VELOX 1 29 Jun 13:45:54 13:50:20 85° 105° (ESE) 13:54:44 145.980
AO-7 29 Jun 13:46:25 13:52:20 22° 38° (NE) 13:58:16 29.400- 29.500
O/OREOS (USA 219) 29 Jun 13:49:48 13:53:54 36° 252° (WSW) 13:58:00 437.305
TISAT 1 29 Jun 14:02:44 14:05:46 19° 91° (E) 14:08:48 437.305
YUBILEINY 29 Jun 14:16:43 14:25:27 87° 280° (W) 14:34:20 435.215
SPROUT 29 Jun 14:21:03 14:25:22 88° 286° (WNW) 14:29:40 437.525
UKube-1 29 Jun 14:21:31 14:25:50 68° 288° (WNW) 14:30:07 .
Oscar 19 29 Jun 14:25:47 14:30:54 66° 258° (WSW) 14:36:02 437.125/150
AISAT 29 Jun 14:27:09 14:31:15 39° 293° (WNW) 14:35:20 437.250
Cosmos 2491 29 Jun 14:27:14 14:34:31 31° 280° (W) 14:41:48 435.465 / 435.565
ESTCUBE 1 29 Jun 14:27:25 14:31:19 29° 297° (WNW) 14:35:10 437.505/2401.250
DX 1 29 Jun 14:43:38 14:47:37 36° 294° (WNW) 14:51:35 434.975-435.025
AIST 2 29 Jun 14:45:43 14:49:33 37° 239° (WSW) 14:53:23 435.215
Cosmos 2504 29 Jun 14:46:10 14:54:09 56° 90° (E) 15:02:39 435.465 / 435.565
ITAMSAT 1 29 Jun 14:50:40 14:55:35 44° 65° (ENE) 15:00:33 435.822/435.867
Gurwin Techsat 1B 29 Jun 14:50:42 14:56:02 84° 255° (WSW) 15:01:25 435.225
SWISSCUBE 29 Jun 14:58:30 15:01:44 18° 89° (E) 15:04:57 437.505
50 SAT 29 Jun 15:07:15 15:09:02 13° 302° (WNW) 15:10:47 437.505
CUBEBUG 1 29 Jun 15:12:41 15:15:24 16° 302° (WNW) 15:18:06 437.445
ISS 29 Jun 15:15:16 15:18:14 31° 210° (SSW) 15:21:11 145.825
BEESAT 29 Jun 15:23:08 15:27:10 26° 93° (E) 15:31:10 436.000
VELOX 1 29 Jun 15:23:39 15:26:13 15° 304° (NW) 15:28:46 145.980
ITUPSAT 1 29 Jun 15:24:52 15:28:56 27° 93° (E) 15:32:59 437.325
JAS-2 29 Jun 15:32:15 15:36:23 16° 276° (W) 15:40:21 435.910
AO-7 29 Jun 15:35:28 15:43:38 64° 62° (ENE) 15:51:54 29.400- 29.500
TISAT 1 29 Jun 15:37:38 15:41:45 54° 290° (WNW) 15:45:51 437.305
RS-15 29 Jun 15:42:22 15:53:50 54° 334° (NNW) 16:05:50 29.354- 29.394
SPROUT 29 Jun 15:58:33 16:00:40 14° 304° (NW) 16:02:49 437.525
UKube-1 29 Jun 15:59:47 16:01:06 11° 308° (NW) 16:02:24 .
SO-50 29 Jun 16:01:18 16:04:44 19° 113° (ESE) 16:08:09 436.795
Oscar 19 29 Jun 16:10:26 16:11:14 10° 277° (W) 16:12:04 437.125/150
YUBILEINY 29 Jun 16:16:43 16:23:41 26° 305° (NW) 16:30:45 435.215
HORYU 2 29 Jun 16:23:42 16:27:10 23° 60° (ENE) 16:30:39 437.375
NOAA 15 29 Jun 16:29:14 16:29:50 10° 45° (NE) 16:30:24 137.62
ITAMSAT 1 29 Jun 16:30:31 16:35:11 33° 265° (W) 16:39:56 435.822/435.867
Gurwin Techsat 1B 29 Jun 16:33:56 16:36:50 15° 274° (W) 16:39:43 435.225
SWISSCUBE 29 Jun 16:35:15 16:40:04 72° 289° (WNW) 16:44:50 437.505
Cosmos 2504 29 Jun 16:40:00 16:47:52 43° 294° (WNW) 16:56:12 435.465 / 435.565
BEESAT 29 Jun 17:00:34 17:05:11 48° 292° (WNW) 17:09:47 436.000
ITUPSAT 1 29 Jun 17:02:22 17:07:00 48° 293° (WNW) 17:11:36 437.325
Cubesat XI-IV 29 Jun 17:07:41 17:10:40 15° 50° (NE) 17:13:40 437.490
NOAA 18 29 Jun 17:10:40 17:14:18 18° 52° (NE) 17:17:58 137.9125
BRITE-PL 29 Jun 17:11:58 17:14:41 15° 57° (ENE) 17:17:17 437.365/2234.400
MOZHAYETS 4 29 Jun 17:29:13 17:33:48 53° 100° (E) 17:38:19
AIST 1 29 Jun 17:29:14 17:33:00 31° 90° (E) 17:36:48
AO-7 29 Jun 17:29:14 17:36:53 39° 264° (W) 17:44:35 29.400- 29.500
KKS-1 29 Jun 17:30:38 17:35:02 56° 101° (E) 17:39:25 437.445
Cosmos 2499 29 Jun 17:34:17 17:36:09 11° 64° (ENE) 17:38:01 435.465 / 435.565
SO-50 29 Jun 17:39:46 17:44:41 84° 313° (NW) 17:49:34 436.795
CUTE-I 29 Jun 17:39:59 17:44:15 25° 57° (ENE) 17:48:33 437.470
GOMX 1 29 Jun 17:40:35 17:42:22 12° 56° (NE) 17:44:09 467.674
HO-68 29 Jun 17:48:18 17:51:04 13° 34° (NE) 17:53:50 435.675
CUSAT 1 29 Jun 17:52:30 17:54:23 13° 53° (NE) 17:56:06 437.405
RS-15 29 Jun 17:58:04 18:09:27 44° 7° (N) 18:21:07 29.354- 29.394
HORYU 2 29 Jun 17:59:05 18:03:25 53° 259° (W) 18:07:49 437.375
STARS 29 Jun 17:59:35 18:03:56 58° 101° (ESE) 18:08:17 437.465
NOAA 15 29 Jun 18:03:22 18:08:23 46° 66° (ENE) 18:13:26 137.62
SWISSCUBE 29 Jun 18:14:44 18:17:03 14° 308° (NW) 18:19:22 437.505
GONETS M04 29 Jun 18:20:02 18:27:21 32° 81° (E) 18:34:40
DANDE 29 Jun 18:24:59 18:28:36 18° 51° (NE) 18:31:38 436.750
LilacSat-2 29 Jun 18:33:33 18:37:10 44° 70° (ENE) 18:40:51 437.200
DOVE 4 29 Jun 18:33:35 18:36:21 17° 60° (ENE) 18:39:06 437.250
Cosmos 2504 29 Jun 18:40:24 18:44:16 13° 322° (NW) 18:48:14 435.465 / 435.565
Cubesat XI-IV 29 Jun 18:44:32 18:49:51 70° 71° (ENE) 18:55:14 437.490
BRITE-PL 29 Jun 18:47:43 18:52:39 90° 38° (NE) 18:57:13 437.365/2234.400
NOAA 18 29 Jun 18:48:44 18:54:13 84° 71° (ENE) 18:59:46 137.9125
CUBESAT XI-V 29 Jun 19:00:03 19:04:39 56° 100° (E) 19:09:10 437.345
AIST 1 29 Jun 19:06:43 19:10:36 31° 290° (WNW) 19:14:28
MOZHAYETS 4 29 Jun 19:06:57 19:10:41 24° 299° (WNW) 19:14:23
KKS-1 29 Jun 19:07:53 19:11:17 22° 300° (WNW) 19:14:40 437.445
GOMX 1 29 Jun 19:15:22 19:19:52 80° 75° (ENE) 19:24:09 467.674
CUTE-I 29 Jun 19:18:34 19:23:53 66° 257° (WSW) 19:29:16 437.470
Cosmos 2499 29 Jun 19:18:56 19:26:53 47° 87° (E) 19:35:13 435.465 / 435.565
CINEMA 3 29 Jun 19:20:21 19:22:56 16° 58° (ENE) 19:25:33 145.822/145.860
SO-50 29 Jun 19:21:45 19:25:50 26° 334° (NNW) 19:29:53 436.795
HO-68 29 Jun 19:30:24 19:36:55 40° 57° (ENE) 19:43:28 435.675
CUSAT 1 29 Jun 19:33:20 19:37:16 58° 263° (W) 19:40:19 437.405
STARS 29 Jun 19:36:39 19:39:58 21° 300° (WNW) 19:43:16 437.465
NOAA 15 29 Jun 19:43:38 19:48:20 32° 265° (W) 19:53:04 137.62
COMPASS 1 29 Jun 19:49:44 19:52:17 16° 58° (ENE) 19:54:51 437.405
CANX-2 29 Jun 19:51:31 19:55:16 30° 65° (ENE) 19:59:03 2200.000
DANDE 29 Jun 20:07:06 20:12:30 75° 260° (W) 20:16:25 436.750
LilacSat-2 29 Jun 20:08:59 20:11:44 19° 269° (W) 20:14:30 437.200
DOVE 4 29 Jun 20:09:28 20:13:42 64° 259° (W) 20:17:51 437.250
CUTE 1.7 + AOD 2 29 Jun 20:10:57 20:14:57 40° 68° (ENE) 20:19:00 437.475
RS-15 29 Jun 20:12:15 20:24:30 68° 38° (NE) 20:36:50 29.354- 29.394
SEEDS 29 Jun 20:12:49 20:16:36 32° 66° (ENE) 20:20:24 437.485
GONETS M04 29 Jun 20:14:48 20:23:29 72° 284° (WNW) 20:32:13
AUBIESAT-1 29 Jun 20:23:17 20:25:35 18° 55° (NE) 20:27:56 437.475
Cubesat XI-IV 29 Jun 20:26:27 20:30:28 21° 270° (W) 20:34:31 437.490
BRITE-PL 29 Jun 20:29:23 20:31:44 13° 273° (W) 20:33:59 437.365/2234.400
NOAA 18 29 Jun 20:31:56 20:35:36 18° 272° (W) 20:39:17 137.9125
CUBESAT XI-V 29 Jun 20:38:05 20:41:42 23° 300° (WNW) 20:45:18 437.345
CUBEBUG 2 29 Jun 20:44:01 20:47:47 33° 66° (ENE) 20:51:41 437.445
AAUSAT CUBESAT 2 29 Jun 20:47:58 20:51:55 41° 68° (ENE) 20:55:53 437.432
STRAND 1 29 Jun 20:51:26 20:56:30 52° 100° (E) 21:01:30 437.568
DELFI C3 29 Jun 20:51:46 20:53:01 11° 55° (NE) 20:54:15 145.870
CINEMA 3 29 Jun 20:55:29 20:59:37 70° 259° (WSW) 21:03:49 145.822/145.860
GOMX 1 29 Jun 20:56:20 20:58:30 13° 272° (W) 21:00:39 467.674
M-CUBED/EXP-1 PRIME 29 Jun 21:02:44 21:05:54 52° 65° (ENE) 21:09:11 437.505
CUTE-I 29 Jun 21:03:32 21:05:00 11° 277° (W) 21:06:29 437.470
ZACube-1 29 Jun 21:04:42 21:08:18 27° 63° (ENE) 21:11:58 437.345
SO-50 29 Jun 21:04:48 21:07:52 16° 358° (N) 21:10:54 436.795
Oscar 11 29 Jun 21:11:41 21:15:35 33° 65° (ENE) 21:19:30 145.826/435.025
Cosmos 2499 29 Jun 21:11:45 21:20:00 52° 291° (WNW) 21:28:40 435.465 / 435.565
HO-68 29 Jun 21:17:26 21:24:27 57° 258° (WSW) 21:31:33 435.675
FUNcube-1 29 Jun 21:21:10 21:25:02 35° 66° (ENE) 21:29:01 145.935
COMPASS 1 29 Jun 21:23:07 21:27:21 76° 258° (WSW) 21:31:36 437.405
CANX-2 29 Jun 21:27:08 21:31:04 35° 264° (W) 21:35:03 2200.000
UWE-3 29 Jun 21:28:05 21:32:14 61° 72° (ENE) 21:36:33 435.000/436.395/437.385
PRISM 29 Jun 21:28:14 21:31:15 19° 92° (E) 21:34:14 437.425
AO-85 29 Jun 21:32:03 21:35:52 20° 112° (ESE) 21:39:35 145.980
CUTE 1.7 + AOD 2 29 Jun 21:47:20 21:50:56 26° 267° (W) 21:54:35 437.475
SEEDS 29 Jun 21:48:26 21:52:17 32° 265° (W) 21:56:10 437.485
AUBIESAT-1 29 Jun 21:56:41 21:59:51 43° 255° (WSW) 22:03:06 437.475
HUMSAT D 29 Jun 22:05:48 22:09:24 28° 64° (ENE) 22:13:04 437.325/437.525
GONETS M04 29 Jun 22:15:58 22:22:10 21° 310° (NW) 22:28:26
CUBEBUG 2 29 Jun 22:20:42 22:24:26 31° 265° (W) 22:28:18 437.445
ESTCUBE 1 29 Jun 22:21:16 22:23:00 12° 53° (NE) 22:24:44 437.505/2401.250
DELFI C3 29 Jun 22:23:08 22:27:11 77° 73° (ENE) 22:31:14 145.870
AAUSAT CUBESAT 2 29 Jun 22:24:06 22:27:33 24° 267° (W) 22:31:02 437.432
YUBILEINY 29 Jun 22:24:22 22:30:17 19° 48° (NE) 22:36:12 435.215
RS-15 29 Jun 22:25:12 22:36:55 54° 245° (WSW) 22:48:36 29.354- 29.394
STRAND 1 29 Jun 22:31:03 22:35:26 29° 300° (WNW) 22:39:49 437.568
M-CUBED/EXP-1 PRIME 29 Jun 22:39:21 22:40:52 13° 264° (W) 22:42:25 437.505
ZACube-1 29 Jun 22:40:27 22:44:27 40° 263° (W) 22:48:34 437.345
Cosmos 2504 29 Jun 22:42:31 22:42:53 10° 31° (NNE) 22:43:14 435.465 / 435.565
UNISAT 6 29 Jun 22:42:54 22:44:43 12° 85° (E) 22:46:33 437.425
SO-50 29 Jun 22:46:07 22:49:58 23° 23° (NNE) 22:53:44 436.795
Oscar 11 29 Jun 22:47:47 22:51:42 32° 265° (W) 22:55:40 145.826/435.025
FUNcube-1 29 Jun 22:57:37 23:01:21 29° 266° (W) 23:05:11 145.935
CUBEBUG 1 29 Jun 23:01:36 23:04:29 18° 58° (ENE) 23:07:22 437.445
PRISM 29 Jun 23:02:53 23:06:51 49° 291° (WNW) 23:10:47 437.425
UWE-3 29 Jun 23:06:21 23:09:10 17° 271° (W) 23:12:03 435.000/436.395/437.385
AO-85 29 Jun 23:10:25 23:15:50 89° 320° (NW) 23:21:00 145.980
Cosmos 2499 29 Jun 23:10:44 23:15:44 16° 317° (NW) 23:20:50 435.465 / 435.565
HO-68 29 Jun 23:11:28 23:13:50 12° 280° (W) 23:16:12 435.675
VELOX 1 29 Jun 23:13:00 23:16:18 21° 60° (ENE) 23:19:36 145.980
ANTELSAT 29 Jun 23:21:05 23:25:00 26° 93° (E) 23:28:56 437.575/2403.000
HUMSAT D 29 Jun 23:41:02 23:44:56 37° 263° (W) 23:48:54 437.325/437.525
SPROUT 29 Jun 23:45:03 23:48:03 19° 60° (ENE) 23:51:05 437.525
Cosmos 2491 29 Jun 23:45:08 23:50:15 17° 71° (ENE) 23:55:20 435.465 / 435.565
UKube-1 29 Jun 23:45:39 23:49:16 27° 63° (ENE) 23:52:54 .
AISAT 29 Jun 23:52:53 23:57:05 46° 68° (ENE) 00:01:19 437.250
ESTCUBE 1 29 Jun 23:54:30 23:59:01 69° 71° (ENE) 00:03:32 437.505/2401.250
DELFI C3 30 Jun 00:00:44 00:02:34 13° 273° (W) 00:04:24 145.870
DX 1 30 Jun 00:07:39 00:11:51 49° 69° (ENE) 00:16:03 434.975-435.025
TIGRISAT 30 Jun 00:11:50 00:16:29 70° 102° (ESE) 00:21:10 435.000
NANOSAT C BR1 30 Jun 00:12:22 00:14:49 15° 89° (E) 00:17:16 145.865
50 SAT 30 Jun 00:14:31 00:18:14 74° 74° (ENE) 00:21:59 437.505
QB50P1 30 Jun 00:15:58 00:18:46 17° 90° (E) 00:21:34 145.935-145.965
UNISAT 6 30 Jun 00:17:29 00:22:10 82° 103° (ESE) 00:26:53 437.425
POPSAT HIP 1 30 Jun 00:19:15 00:22:11 18° 90° (E) 00:25:06 437.405
YUBILEINY 30 Jun 00:20:26 00:29:14 64° 74° (ENE) 00:38:00 435.215
SO-50 30 Jun 00:26:29 00:31:15 72° 46° (NE) 00:35:49 436.795
QB50P2 30 Jun 00:31:32 00:35:04 24° 93° (E) 00:38:35 145.880/145.840
DUCHIFAT 1 30 Jun 00:31:37 00:34:52 21° 92° (E) 00:38:07 145.980
POLYITAN 1 30 Jun 00:34:09 00:37:42 25° 93° (E) 00:41:16 437.675
CUBEBUG 1 30 Jun 00:35:59 00:40:19 70° 257° (WSW) 00:44:40 437.445
